Regional Weather Roundup
Issued by NWS

Home | Current Version | Previous Version | Graphics & Text | Print | Product List | Glossary On
Versions: 1 2 3 4 5 6 7 8 9 10 11 12 13 14 15 16 17 18 19 20 21 22 23 24 25 26 27 28 29 30 31 32 33 34 35 36 37 38 39 40 41 42 43 44 45 46 47 48 49 50
000
ASUS43 KMKX 020659
RWRWI

WISCONSIN REGIONAL WEATHER ROUNDUP
NATIONAL WEATHER SERVICE MILWAUKEE/SULLIVAN WI
100 AM CST MON MAR 02 2015

NOTE: "FAIR" INDICATES FEW OR NO CLOUDS BELOW 12,000 FEET WITH NO
SIGNIFICANT WEATHER AND/OR OBSTRUCTIONS TO VISIBILITY.

WIZ001-002-006>008-014>016-023>028-020800-
NORTHWEST WISCONSIN

CITY           SKY/WX    TMP DP  RH WIND       PRES   REMARKS
SUPERIOR ARPT  CLEAR     14   6  70 NW14      30.36S WCI  -1
ASHLAND        CLOUDY    18   6  59 W12G18    30.33R WCI   5
HAYWARD        CLEAR     14   5  67 NW5       30.32R WCI   6
SIREN          CLEAR     14   6  72 NW8       30.37R WCI   2
CUMBERLAND     CLEAR     14   7  73 NW12      30.33R WCI   0
RICE LAKE      CLEAR     16   8  70 W9G16     30.35R WCI   5
CHETEK         CLEAR     17   8  70 W7        30.34R WCI   7
LADYSMITH      FAIR      17   8  70 W10       30.31R WCI   4
EAU CLAIRE     NOT AVBL
MENOMONIE      MOCLDY    20  10  66 W14       30.37R WCI   7
NEW RICHMOND   CLEAR     16   8  71 NW8       30.38R WCI   6
OSCEOLA        CLEAR     17   9  69 NW7       30.41S WCI   8
$$

WIZ003>005-009-010-017-018-020800-
NORTH CENTRAL WISCONSIN

CITY           SKY/WX    TMP DP  RH WIND       PRES   REMARKS
MANITOWISH WTR FLURRIES  16   8  70 NW17G25   30.20R WCI   0
ARBOR VITAE    FLURRIES  19  12  73 NW10G16   30.19R WCI   8
WOODRUFF       FLURRIES  19  12  73 NW10G16   30.19R WCI   8
RHINELANDER    CLOUDY    15   6  67 W8        30.20R WCI   4
EAGLE RIVER    MOCLDY    17   8  65 NW14      30.16R WCI   3
LAND O LAKES   LGT SNOW  18  12  80 NW12G18   30.17R WCI   5
PHILLIPS       FLURRIES  16   8  73 W5        30.23R WCI   8
TOMAHAWK       MOCLDY    15   8  72 W5        30.23R WCI   7
MEDFORD        CLEAR     13   6  74 W8        30.26R WCI   2
MERRILL        CLEAR     14   6  72 W7        30.24R WCI   4
$$

WIZ029-030-035-036-043>047-020800-
CENTRAL WISCONSIN

CITY           SKY/WX    TMP DP  RH WIND       PRES   REMARKS
WAUSAU         CLEAR     13   5  70 NW9       30.25R WCI   1
MOSINEE        CLEAR     14   9  79 W7        30.26R WCI   4
MARSHFIELD     CLEAR     15   7  70 NW10      30.29R WCI   2
STEVENS POINT  CLEAR     13   6  74 W3        30.28R
WAUPACA        CLEAR     19   8  64 W6        30.29R WCI  11
WAUTOMA        NOT AVBL
WISC RAPIDS    CLEAR     15   6  67 W9        30.32R WCI   3
CAMP DOUGLAS   NOT AVBL
$$

WIZ011>013-019>022-031-037>040-048>050-020800-
NORTHEAST WISCONSIN

CITY           SKY/WX    TMP DP  RH WIND       PRES   REMARKS
ANTIGO         CLEAR     13   5  71 W10G18    30.21R WCI   0
SHAWANO        CLEAR     19   8  61 W6        30.26R WCI  11
OCONTO         CLEAR     15   6  66 W8        30.25R WCI   4
STURGEON BAY   CLEAR     18   5  57 W10       30.25R WCI   6
GREEN BAY      CLEAR     16   7  67 SW8       30.28R WCI   5
MANITOWOC      NOT AVBL
APPLETON       CLEAR     14   5  67 W7        30.27R WCI   4
CLINTONVILLE   CLEAR     18   7  62 W7        30.27R WCI   8
OSHKOSH        CLEAR     16   6  65 W6        30.30R WCI   7
$$

WIZ032>034-041-042-053>061-020800-
SOUTHWEST WISCONSIN

CITY           SKY/WX    TMP DP  RH WIND       PRES   REMARKS
LA CROSSE      PTCLDY    12   8  84 CALM      30.38R
SPARTA         CLEAR      4   0  84 CALM      30.36R
VIROQUA        CLEAR     15  10  82 W7        30.33R WCI   5
BOSCOBEL       FAIR       9   3  77 SW7       30.40R WCI  -2
PRAIRIE DU CHI CLEAR     15   7  71 W7        30.41R WCI   5
PLATTEVILLE    CLEAR     11   7  83 SW6       30.38R WCI   1
$$

WIZ056-057-062-063-064-067-068-020800-
SOUTH CENTRAL WISCONSIN

CITY           SKY/WX    TMP DP  RH WIND       PRES   REMARKS
REEDSBURG      CLEAR     17  10  72 W5        30.34R WCI  10
BARABOO/DELLS  CLEAR     17   9  71 W8        30.34R WCI   6
LONE ROCK      NOT AVBL
MINERAL POINT  CLEAR     14   9  79 W7        30.35R WCI   4
MADISON        CLEAR     15   6  67 VRB3      30.35R
MIDDLETON      CLEAR     16   7  67 W5        30.36R WCI   9
WATERTOWN      CLEAR     15   7  70 SW5       30.33R WCI   7
MONROE         CLEAR     18  10  73 W17       30.36R WCI   2
JANESVILLE     CLEAR     18   9  68 W5        30.37R WCI  11
$$

WIZ051-052-058>065-066-070>072-020800-
SOUTHEAST WISCONSIN

CITY           SKY/WX    TMP DP  RH WIND       PRES   REMARKS
MILWAUKEE      CLEAR     20   6  55 W9        30.34R WCI   9
WAUKESHA       CLEAR     18   7  62 SW8       30.33R WCI   7
MILWAUKEE/TIMM CLEAR     19   7  58 W10       30.33R WCI   8
RACINE         CLEAR     17   6  62 W9        30.37R WCI   6
BURLINGTON     CLEAR     15   6  67 W6        30.35R WCI   6
KENOSHA        CLEAR     16   6  65 W12       30.36R WCI   3
FOND DU LAC    CLEAR     16   6  65 SW6       30.32R WCI   7
SHEBOYGAN      CLEAR     18   7  62 W13       30.30R WCI   5
WEST BEND      CLEAR     18   7  62 W8        30.30R WCI   7
JUNEAU         CLEAR     11   5  77 SW6       30.33R WCI   1
$$

LSZ147-162-020800-
LAKE SUPERIOR

STATION/POSITION TIME  TEMP    WIND        PRES    WAVE
                       AIR SEA DIR/SP/G            HT/PER
                 (UTC) (F)     (DEG/KT/KT) (MB)    (FT/S)
DEVILS ISLAND    0600   20     310/ 25/ 29 1026.5R
PORT WING        0640   18     290/ 15/ 19 1027.4R
SAXON HARBOR     0620   20     310/ 17/ 23 1026.1R
$$

LMZ867-665-643>646-020800-
LAKE MICHIGAN

STATION/POSITION TIME  TEMP    WIND        PRES    WAVE
                       AIR SEA DIR/SP/G            HT/PER
                 (UTC) (F)     (DEG/KT/KT) (MB)    (FT/S)
NORTHPORT PIER   0603   19     280/  8/ 18 1022.0R
SISTER BAY       0613   15     290/  9/ 10   N/A
KEWAUNEE LAKESHO 0600   19     290/  9/ 12   N/A
SHEBOYGAN LAKESH 0600   21     270/ 14/ 17 1026.6R
PORT WASHINGTON  0600   21     270/  5/ 10 1026.8
MILWAUKEE LAKESH 0600   22     280/ 12/ 16   N/A
KENOSHA   LAKESH 0600   19     270/ 11/ 15 1027.1R
$$

TC  - TEMPERATURE IN CELSIUS
VSB - VISIBILITY IN STATUTE MILES
WCI - WIND CHILL INDEX
HX  - HEAT INDEX



USA.gov is the U.S. government's official web portal to all federal, state and local government web resources and services.